Seaglider Denebola on mission DY033 Piloting

  • Public vehicle
  • Serial Number sg534
  • Operated by NOC on the SSB project

  • Deployed: 2015/07/13 00:00:00 UTC (1557 days ago)
  • Recovered: 2015/07/30 00:00:00 UTC (1540 days ago)
  • Time at Sea: 17 days
  • Profiles Performed: 577

Near Real-Time Data

 
cdom
chlor
density
oxygen
potential_temperature
salinity

Communication Log

# Updated Depth Speed Plots
199608 2015-07-30 07:41:54 UTC (1540 days ago)
199570 2015-07-30 05:50:20 UTC (1540 days ago)
199835 2015-07-30 00:28:44 UTC (1540 days ago)
199584 2015-07-29 22:40:12 UTC (1540 days ago)
199741 2015-07-29 22:07:21 UTC (1540 days ago)
199615 2015-07-29 21:36:40 UTC (1540 days ago)
199936 2015-07-29 21:06:06 UTC (1540 days ago)
199766 2015-07-29 20:33:32 UTC (1541 days ago)
199580 2015-07-29 20:02:08 UTC (1541 days ago)
199894 2015-07-29 19:31:16 UTC (1541 days ago)
199990 2015-07-29 18:59:26 UTC (1541 days ago)
199859 2015-07-29 18:27:55 UTC (1541 days ago)
199776 2015-07-29 16:38:57 UTC (1541 days ago)
199686 2015-07-29 16:06:50 UTC (1541 days ago)
199849 2015-07-29 15:35:20 UTC (1541 days ago)
199937 2015-07-29 15:03:39 UTC (1541 days ago)
199991 2015-07-29 14:32:51 UTC (1541 days ago)
199964 2015-07-29 14:00:38 UTC (1541 days ago)
199871 2015-07-29 13:29:20 UTC (1541 days ago)
199962 2015-07-29 12:58:14 UTC (1541 days ago)